sat.trackr.live / text

‹ back to catalog

STARLINK-6170

NORAD 57129 · 2023-090AE

PAYLOAD ACTIVE UNKNOWN

§ Identity

Operator
Country
US
Launch date
2023-06-23
Launch site
AFETR
Launch vehicle
Mass (kg)
RCS (m²)

Purposes: comms

External: N2YO · Heavens-Above · Gunter

§ Orbital elements

Epoch: 2026-09-20T10:46:27.727392Z

Period
94.27 min
Inclination
43.0008°
Eccentricity
0.0000361
Mean motion
15.27574585 rev/d
Perigee alt
482.8 km
Apogee alt
483.3 km
Semi-major
6,861.2 km
B*
-3.4413e-5
RAAN
243.9323°
Arg perigee
314.3334°
Mean anomaly
45.7488°
Rev number
18,013

§ Raw data

STARLINK-61701 57129U 23090AE  26263.44893203 -.00001208  00000+0 -34413-4 0  99912 57129  43.0008 243.9323 0000361 314.3334  45.7488 15.27574585180136

JSON: /api/v1/satellites/57129 · /tle

For live sub-satellite position, see the globe view (requires WebGL).

§ Visibility from observer

Set your observer location to see the next 7 days of passes ≥ 10°. The values pass through the URL so the page stays shareable.

No JS? Fill the form by hand. The geolocation button needs JavaScript.